Погода Пировское

Погода Пировское : погода сейчас, прогноз погоды и архив. Всё, что Вы хотите узнать о погоде Пировское!

Поиск расширенной информации на нашем сайте:

Другие новости

Новости СМИ2

Главная страница сайта

Новости сайта

02.10.2013

Напоминаем, что на нашем новом сайте вы можете получить высокодетализированные прогнозы погоды по пунктам России, СНГ и мира (включающие важные для авиации метеовеличины, такие как направление и скорость ветра, видимость, явления погоды, количество и форма облачности, нижняя и верхняя граница облачности), а также ознакомиться с разнообразными материалами по авиационной метеорологии и подборкой полезных ссылок на эту тему.

Сайт Метеоцентр.Азия посвящён разработке технологий оптимизации авиаметеорологического обслуживания, включая проектирование и перспективное создание нескольких автоматизированных авиаметеорологических систем:
- система выпуска высокодетальных прогностических карт явлений погоды для нижнего воздушного пространства по России и ближнему зарубежью;
- система верификации прогнозов TAF (выпускаемых синоптиками официальных АМСГ РФ и ближнего зарубежья) и AUTOTAF (выпускаемых сайтом Метеоцентр.Азия) - выявление ошибок, онлайн-сопоставление с фактической погодой METAR, автоматическое внесение коррективов в прогнозы при резком отклонении фактической погоды от прогноза, подсчёт оправдываемости прогнозов по элементам и в целом;
- система обработки, анализа и отображения авиаметеорологической информации для применения провайдерами метеорологической информации.


Погода Пировское - сегодня

Время (UTC), дата Ветер
(°,м/с) 
Видим.   Явления Облачность Т
(°С)
Тd
(°С)
f(%) Тe
(°С)
Pmin
(гПа)
dP
(гПа)
Po
(мм)
O2
(г/м3)
Тmin Tmax R s Состояние
почвы
00 17.01.17 тихо ()   н/о    н/о 
-43.7 -48.3 60 -44  1045.7  0.4  764  369  -43.8         
03 17.01.17 тихо ()   н/о    н/о 
-43.5 -48 61 -44  1045.7  0.4  764  368  -43.9         
06 17.01.17 тихо ()   н/о    н/о 
-32.3 -35.5 73 -32  1045.7  0.4  764  351           
09 17.01.17 080 (В) н/о    н/о 
-28.8 -32 74 -29  1045.7  0.4  764  346           
12 17.01.17 070 (В) н/о    н/о 
-32.9 -36.1 73 -34  1045.7  0.4  764  352    -27.6       
15 17.01.17 тихо ()   н/о    н/о 
-35.7 -39.3 69 -36  1045.7  0.4  764  356           
18 17.01.17 тихо ()   н/о    н/о 
-32.5 -35.7 73 -33  1045.7  0.4  764  351           
21 17.01.17 160 (Ю) н/о    н/о 
-28.7 -31.4 77 -29  1045.7  0.4  764  346           
00 18.01.17 210 (ЮЗ) н/о    н/о 
-26.3 -28.6 81 -27  1045.7  0.4  764  342  -35.7         
03 18.01.17 210 (ЮЗ) н/о    н/о 
-20.2 -21.9 86 -25  1045.7  0.4  764  334           
06 18.01.17 220 (ЮЗ) н/о    н/о 
-16.1 -17.9 86 -22  1031.8  756  325           
09 18.01.17 240 (ЮЗ) 4{10}  н/о    н/о 
-14.5 -16.3 86 -19  1030.3  -1.3  755  322           
12 18.01.17 240 (ЮЗ) н/о    н/о 
-14.6 -15.9 90 -18  1030.1  -0.2  754  323    -14.4       
15 18.01.17 250 (З) н/о    н/о 
-14.8 -16 91 -17  1029.9  -0.2  754  323           
18 18.01.17 280 (З) н/о    н/о 
-15.1 -16.5 89 -19  1029.6  -0.3  754  323           
21 18.01.17 280 (З) н/о    н/о 
-15.9 -17.1 90 -18  1029.8  0.1  754  324           
00 19.01.17 280 (З) н/о    н/о 
-17.2 -18.5 90 -20  1030.6  0.6  755  326  -17.2         
03 19.01.17 270 (З) н/о    н/о 
-18.3 -19.7 89 -22  1031.9  0.6  755  328  -18.3         
06 19.01.17 270 (З) н/о    н/о 
-17.7 -19.7 84 -23  1032.6  0.8  756  327           
09 19.01.17 260 (З) н/о    н/о 
-18 -20 84 -21  1034.1  1.4  757  328           
12 19.01.17 260 (З) н/о    н/о 
-17.9 -19.5 87 -20  1035.5  1.3  758  328    -17       
15 19.01.17 260 (З) н/о    н/о 
-18.3 -19.7 89 -21  1036.6  759  329           
18 19.01.17 250 (З) н/о    н/о 
-18.4 -19.9 88 -21  1036.8  0.2  759  330           
21 19.01.17 210 (ЮЗ) н/о    н/о 
-19.5 -21 88 -24  1037  0.1  759  331           
00 20.01.17 200 (Ю) н/о    н/о 
-20.5 -22.2 86 -23  1037.1  0.1  759  332  -20.6         
Время (UTC), дата Ветер
(°,м/с) 
Видим.   Явления Облачность Т
(°С)
Тd
(°С)
f(%) Тe
(°С)
Pmin
(гПа)
dP
(гПа)
Po
(мм)
O2
(г/м3)
Тmin Tmax R s Состояние
почвы

Для получения пояснительной информации подведите курсор к названию столбца.

ПОГОДА Пировское - архив

Всё, что Вы хотите узнать о погоде Пировское - удобно и подробно!

Выберите нужную дату (начиная с 1 января 2015* года) и нажмите кнопку "Найти".
Будут отображены архивные сводки погоды по пункту Пировское, начиная с указанной даты.


Отображать данные в формате CSV (для использования в таблицах Excel)


Внимание! Наш архив погоды предназначен исключительно для личного некоммерческого использования в познавательных целях. Если Вам необходимы официальные справки о состоянии погоды (для производственных, юридических, коммерческих и т.п. целей), обращайтесь в органы Росгидромета.

*Примечание: данная дата относится к архиву по метеостанциям СССР (Россия, СНГ, Балтия).
Архив по метеостанциям Зарубежной Европы и Азии (кроме Китая) хранится 10 дней, по другим регионам земного шара (Китай, Африка, Америка, Австралия, Океания) - 1 день.

Пировское - район местоположения метеостанции


Название, широта, долгота, высота метеостанции:
Пировское 57.6°ш. 92.3°д. 179 м над ур. моря [Российская Федерация]

Дополнительная информация

В oтличие oт бoльшинства пoгoдных сайтoв мы публикуем пoдрoбную метеoинфoрмацию в детальнoм прoфессиoнальнoм фoрмате.

Характеристики температуры и влажнoсти вoздуха измеряются на высoте 2 м в тени вдали oт зданий и деревьев.
Скoрoсть ветра измеряется на высoте 10 м (на урoвне рoста челoвека скoрoсть ветра ниже в 1.5-2 раза). Если метеoстанция нахoдится в гoрoде или в лесу, тo скoрoсть ветра занижена на 2-4 м/с пo сравнению с oткрытым местoм. Скoрoсть ветра над акватoриями крупных рек и oзёр, а также на вершинах хoлмoв на 2-5 м/с выше, чем в oбычных услoвиях.
Атмoсфернoе давление в разных тoчках местнoсти мoжет значительнo oтличаться oт давления на метеoстанции, в зависимoсти oт услoвий рельефа (при пoдъёме на 10 м давление пoнижается примернo на 1 мм рт.ст.).